Regional Weather Roundup
Issued by NWS

Home | Current Version | Previous Version | Graphics & Text | Print | Product List | Glossary On
Versions: 1 2 3 4 5 6 7 8 9 10 11 12 13 14 15 16 17 18 19 20 21 22 23 24 25 26 27 28 29 30 31 32 33 34 35 36 37 38 39 40 41 42 43 44 45 46 47 48 49 50
000
ASUS43 KMKX 290411
RWRWI

WISCONSIN REGIONAL WEATHER ROUNDUP
NATIONAL WEATHER SERVICE MILWAUKEE/SULLIVAN WI
1000 PM CST SUN DEC 28 2014

NOTE: "FAIR" INDICATES FEW OR NO CLOUDS BELOW 12,000 FEET WITH NO
SIGNIFICANT WEATHER AND/OR OBSTRUCTIONS TO VISIBILITY.

WIZ001-002-006>008-014>016-023>028-290500-
NORTHWEST WISCONSIN

CITY           SKY/WX    TMP DP  RH WIND       PRES   REMARKS
SUPERIOR ARPT  CLEAR      7  -3  65 N7        30.38R WCI  -5
ASHLAND        CLEAR      1  -4  79 W6        30.33R WCI -10
HAYWARD        CLEAR     -8 -12  83 N3        30.29S
SIREN          CLEAR     -1  -5  82 CALM      30.34R
CUMBERLAND     FAIR       3  -6  66 N5        30.28S WCI  -6
RICE LAKE      FAIR       4  -3  72 N3        30.31R
CHETEK         FAIR       2  -2  83 CALM      30.30R
LADYSMITH      CLEAR      0  -4  86 NE3       30.29R
EAU CLAIRE     PTCLDY    -1  -6  79 N5        30.30R WCI -11
MENOMONIE      PTCLDY     4   0  84 CALM      30.31R
NEW RICHMOND   PTCLDY     2  -4  78 CALM      30.32R
OSCEOLA        PTCLDY    -1  -5  85 CALM      30.36R
$$

WIZ003>005-009-010-017-018-290500-
NORTH CENTRAL WISCONSIN

CITY           SKY/WX    TMP DP  RH WIND       PRES   REMARKS
MANITOWISH WTR PTCLDY   -10 -14  82 CALM      30.22R
ARBOR VITAE    FAIR      -6 -10  81 CALM      30.21S
WOODRUFF       FAIR      -6 -10  81 CALM      30.21S
RHINELANDER    PTCLDY    -4  -6  91 NW3       30.21R
EAGLE RIVER    PTCLDY     2  -2  82 NW5       30.20S WCI  -7
LAND O LAKES   FLURRIES  -1  -4  86 SW3       30.21R
PHILLIPS       CLEAR    -10 -14  83 CALM      30.23S
TOMAHAWK       PTCLDY    -3  -7  83 CALM      30.24R
MEDFORD        PTCLDY   N/A N/A N/A N3        30.24R
MERRILL        PTCLDY    -1  -3  91 CALM      30.25R
$$

WIZ029-030-035-036-043>047-290500-
CENTRAL WISCONSIN

CITY           SKY/WX    TMP DP  RH WIND       PRES   REMARKS
WAUSAU         CLEAR      6   2  83 CALM      30.24R
MOSINEE        PTCLDY    10   7  85 CALM      30.26R
MARSHFIELD     PTCLDY    10   6  84 N6        30.24S WCI   0
STEVENS POINT  CLEAR     11   9  89 CALM      30.27R
WAUPACA        CLEAR     19  14  81 NW5       30.27R WCI  12
WAUTOMA        CLEAR     19  14  81 CALM      30.28R
WISC RAPIDS    CLEAR     15   9  76 N7        30.27S WCI   5
CAMP DOUGLAS   PTCLDY    14  14  99 CALM      30.28R
$$

WIZ011>013-019>022-031-037>040-048>050-290500-
NORTHEAST WISCONSIN

CITY           SKY/WX    TMP DP  RH WIND       PRES   REMARKS
ANTIGO         PTCLDY    -4  -7  90 N6        30.21S WCI -17
SHAWANO        FAIR      18  10  72 W3        30.28R
OCONTO         CLEAR     16   8  70 N5        30.29R WCI   9
STURGEON BAY   CLEAR     18   9  68 N13       30.27R WCI   4
GREEN BAY      PTCLDY    20  11  68 N10       30.27R WCI   9
MANITOWOC      CLOUDY    23  17  78 N9        30.26R WCI  13
APPLETON       PTCLDY    19  12  73 NW7       30.26R WCI  10
CLINTONVILLE   CLEAR     19  12  73 N6        30.27R WCI  11
OSHKOSH        MOCLDY    22  15  75 N8        30.25R WCI  12
$$

WIZ032>034-041-042-053>061-290500-
SOUTHWEST WISCONSIN

CITY           SKY/WX    TMP DP  RH WIND       PRES   REMARKS
LA CROSSE      PTCLDY    19  13  77 CALM      30.31R
SPARTA         PTCLDY    16  14  91 N3        30.29R
VIROQUA        PTCLDY    19  17  88 NE6       30.25R WCI  11
BOSCOBEL       CLOUDY    20  17  88 CALM      30.27R
PRAIRIE DU CHI CLOUDY    25  19  76 CALM      30.26S
PLATTEVILLE    PTCLDY    24  21  86 CALM      30.24R
$$

WIZ056-057-062-063-064-067-068-290500-
SOUTH CENTRAL WISCONSIN

CITY           SKY/WX    TMP DP  RH WIND       PRES   REMARKS
REEDSBURG      CLOUDY    21  15  76 N6        30.27R WCI  14
BARABOO/DELLS  CLOUDY    22  15  72 N7        30.26R WCI  14
LONE ROCK      CLOUDY    32  19  58 N9        30.26R WCI  24
MINERAL POINT  CLOUDY    27  21  80 N5        30.22R WCI  21
MADISON        CLOUDY    28  20  71 N10       30.23S WCI  19
MIDDLETON      CLOUDY    30  21  69 N9        30.23S WCI  22
WATERTOWN      CLOUDY    26  23  88 N7        30.23R WCI  19
MONROE         MOCLDY    25  19  80 N5        30.22R WCI  19
JANESVILLE     MOCLDY    27  19  74 CALM      30.23R
$$

WIZ051-052-058>065-066-070>072-290500-
SOUTHEAST WISCONSIN

CITY           SKY/WX    TMP DP  RH WIND       PRES   REMARKS
MILWAUKEE      PTCLDY    26  17  68 CALM      30.23S
WAUKESHA       CLOUDY    21  19  93 CALM      30.23F
MILWAUKEE/TIMM CLOUDY    27  19  74 CALM      30.24S
RACINE         CLEAR     25  18  74 NW6       30.25R WCI  18
BURLINGTON     CLOUDY    19  18  93 CALM      30.23R
KENOSHA        PTCLDY    26  19  74 N3        30.23S
FOND DU LAC    CLOUDY    25  16  68 N8        30.25R WCI  16
SHEBOYGAN      CLOUDY    25  18  74 N6        30.24R WCI  18
WEST BEND      CLOUDY    27  21  80 N7        30.23R WCI  19
JUNEAU         CLOUDY    25  20  81 N10       30.25R WCI  15
$$

LSZ147-162-290500-
LAKE SUPERIOR

STATION/POSITION TIME  TEMP    WIND        PRES    WAVE
                       AIR SEA DIR/SP/G            HT/PER
                 (UTC) (F)     (DEG/KT/KT) (MB)    (FT/S)
DEVILS ISLAND    0400   11     330/ 14/ 17 1028.5R
PORT WING        0300   13     300/ 11/ 15 1027.1S
SAXON HARBOR     0340    8     200/  6/  8 1026.4R
$$

LMZ867-665-643>646-290500-
LAKE MICHIGAN

STATION/POSITION TIME  TEMP    WIND        PRES    WAVE
                       AIR SEA DIR/SP/G            HT/PER
                 (UTC) (F)     (DEG/KT/KT) (MB)    (FT/S)
CHAMBERS ISLAND  0300   18     310/ 14/ 21 1024.4S
NORTHPORT PIER   0308   20     330/ 20     1024.0S
SISTER BAY       0328          350/ 25/ 31   N/A
ALGOMA LAKESHORE 0245          340/ 12/ 16   N/A
KEWAUNEE LAKESHO 0300   22     340/  7/ 10 1023.1R
SHEBOYGAN LAKESH 0400   26 36  340/  9/ 11 1025.6R
PORT WASHINGTON  0300   28     270/  2/  3 1024.4R
MILWAUKEE LAKESH 0300   29     340/  6/  7   N/A
KENOSHA   LAKESH 0400   29     330/  5/  6 1024.0R
$$

TC  - TEMPERATURE IN CELSIUS
VSB - VISIBILITY IN STATUTE MILES
WCI - WIND CHILL INDEX
HX  - HEAT INDEX



USA.gov is the U.S. government's official web portal to all federal, state and local government web resources and services.